Location: Caltech
(34.1382°N, 118.1253°W)
Time: 22:27:23
(UTC-07:00)

KITSAT 1 - Visible Passes

Search period start: 28 June 2017 00:00
Search period end: 08 July 2017 00:00
Orbit: 1308 x 1323 km, 66.1° (Epoch: 28 June)

Date Brightness Start Highest point End Pass type
(mag) Time Alt. Az. Time Alt. Az. Time Alt. Az.
28 Jun 11.3 02:35:00 26° SE 02:37:57 32° ESE 02:44:52 10° NE visible
28 Jun 10.7 04:27:00 18° SW 04:32:59 49° WNW 04:40:47 10° NNE visible
29 Jun 10.7 02:50:50 36° SSE 02:53:46 50° ESE 03:01:28 10° NE visible
29 Jun 11.2 04:42:49 12° WSW 04:49:19 34° NW 04:56:31 10° N visible
30 Jun 12.2 01:14:39 10° ESE 01:15:38 11° E 01:17:17 10° E visible
30 Jun 10.2 03:06:37 42° S 03:09:41 76° ESE 03:17:46 10° NNE visible
30 Jun 11.6 04:59:41 10° W 05:05:50 23° NW 05:12:03 10° N visible
01 Jul 11.7 01:30:23 19° ESE 01:31:13 19° ESE 01:36:32 10° ENE visible
01 Jul 10.2 03:22:22 39° SW 03:25:43 74° WNW 03:33:50 10° NNE visible
01 Jul 12.0 05:17:50 10° WNW 05:22:33 16° NW 05:27:17 10° N visible
02 Jul 11.2 01:46:06 31° ESE 01:46:54 31° ESE 01:53:45 10° NE visible
02 Jul 10.6 03:38:04 30° WSW 03:41:54 50° WNW 03:49:45 10° NNE visible
03 Jul 10.6 02:01:46 47° SE 02:02:42 49° ESE 02:10:23 10° NE visible
03 Jul 11.1 03:53:44 21° WSW 03:58:14 35° NW 04:05:30 10° NNE visible
04 Jul 10.1 02:17:23 64° SSE 02:18:37 74° ESE 02:26:41 10° NNE visible
04 Jul 11.6 04:09:22 13° W 04:14:44 24° NW 04:21:03 10° N visible
05 Jul 11.8 00:41:01 18° E 00:41:01 18° E 00:45:21 10° ENE visible
05 Jul 10.2 02:32:59 59° SW 02:34:39 76° WNW 02:42:47 10° NNE visible
05 Jul 12.0 04:26:34 10° W 04:31:25 17° NW 04:36:19 10° N visible
06 Jul 11.3 00:56:34 30° E 00:56:34 30° E 01:02:37 10° NE visible
06 Jul 10.6 02:48:32 41° WSW 02:50:49 52° WNW 02:58:42 10° NNE visible
06 Jul 12.2 04:45:53 10° NW 04:48:19 11° NW 04:50:45 10° NNW visible
07 Jul 10.6 01:12:05 47° E 01:12:05 47° E 01:19:17 10° NE visible
07 Jul 11.1 03:04:02 27° W 03:07:09 36° NW 03:14:27 10° NNE visible
